This is the latest recevied weather packets stored in our database for station/object KD2RHT-13. If no packets are shown the sender has not sent any weather packets the latest 1 day(s).
| Time | Temp. | Humidity | Pressure | Rain* | Wind** | Luminosity | Snow |
|---|---|---|---|---|---|---|---|
| 1777999290 | 22.78° C | 60% | 1005.3 hPa | 0 mm | 0.89 m/s, 205° | 141 W/m² | - |
| 1777998988 | 23.33° C | 59% | 1005.3 hPa | 0 mm | 1.34 m/s, 195° | 154 W/m² | - |
| 1777998685 | 23.33° C | 59% | 1005.3 hPa | 0 mm | 1.34 m/s, 193° | 197 W/m² | - |
| 1777998383 | 23.33° C | 59% | 1005.6 hPa | 0 mm | 1.34 m/s, 113° | 188 W/m² | - |
| 1777998080 | 23.33° C | 60% | 1005.3 hPa | 0 mm | 0.89 m/s, 163° | 209 W/m² | - |
| 1777997777 | 23.33° C | 60% | 1005.6 hPa | 0 mm | 1.34 m/s, 198° | 245 W/m² | - |
| 1777997474 | 23.33° C | 59% | 1005.3 hPa | 0 mm | 2.24 m/s, 212° | 232 W/m² | - |
| 1777997172 | 23.33° C | 60% | 1005.3 hPa | 0 mm | 0.45 m/s, 160° | 273 W/m² | - |
| 1777996869 | 23.33° C | 61% | 1005.3 hPa | 0 mm | 1.34 m/s, 181° | 279 W/m² | - |
| 1777996565 | 23.89° C | 59% | 1005.3 hPa | 0 mm | 2.24 m/s, 204° | 269 W/m² | - |
| 1777996262 | 23.33° C | 60% | 1005.3 hPa | 0 mm | 1.34 m/s, 225° | 317 W/m² | - |
| 1777995958 | 23.33° C | 60% | 1005.6 hPa | 0 mm | 0.89 m/s, 144° | 328 W/m² | - |
| 1777995654 | 23.89° C | 60% | 1005.6 hPa | 0 mm | 0.89 m/s, 176° | 340 W/m² | - |
| 1777995352 | 23.33° C | 60% | 1005.6 hPa | 0 mm | 0.45 m/s, 184° | 439 W/m² | - |
| 1777995049 | 22.78° C | 60% | 1005.6 hPa | 0 mm | 2.68 m/s, 218° | 367 W/m² | - |
| 1777994745 | 22.78° C | 60% | 1005.6 hPa | 0 mm | 1.79 m/s, 146° | 242 W/m² | - |
| 1777994441 | 22.78° C | 60% | 1005.6 hPa | 0 mm | 1.79 m/s, 114° | 251 W/m² | - |
| 1777994136 | 23.33° C | 60% | 1005.6 hPa | 0 mm | 2.24 m/s, 278° | 310 W/m² | - |
| 1777993834 | 23.33° C | 59% | 1005.6 hPa | 0 mm | 2.24 m/s, 141° | 482 W/m² | - |
| 1777993530 | 23.33° C | 58% | 1005.6 hPa | 0 mm | 2.68 m/s, 195° | 412 W/m² | - |
| 1777993227 | 23.33° C | 60% | 1005.6 hPa | 0 mm | 1.34 m/s, 105° | 501 W/m² | - |
| 1777992923 | 22.78° C | 60% | 1005.6 hPa | 0 mm | 0.89 m/s, 153° | 384 W/m² | - |
| 1777992621 | 23.33° C | 59% | 1005.6 hPa | 0 mm | 1.34 m/s, 188° | 261 W/m² | - |
| 1777992319 | 23.89° C | 59% | 1005.3 hPa | 0 mm | 1.34 m/s, 220° | 406 W/m² | - |
| 1777992016 | 23.89° C | 60% | 1005.3 hPa | 0 mm | 0.89 m/s, 207° | 471 W/m² | - |
* Rain latest hour (hover to see other rain measurements)
** Current wind speed in m/s (hover to see current wind gust speed)